Location: Bremen
(53.0793°N, 8.8017°E)
Time: 12:10:45
(UTC+02:00)

Transit 2A Rocket - Pass Details

Date: 24 June 2024
Orbit: 582 x 910 km, 66.7° (Epoch: 19 July)

Event Time Altitude Azimuth Distance (km) Brightness Sun altitude
Rises 01:48:29 0° 298° (WNW) 3,358 8.6 -13.4°
Reaches altitude 10° 01:51:28 10° 314° (NW) 2,478 8.2 -13.3°
Maximum altitude 01:55:51 22° 3° (N) 1,849 8.1 -13.3°
Drops below altitude 10° 02:00:24 10° 53° (NE) 2,585 8.4 -13.2°
Sets 02:03:36 0° 68° (ENE) 3,544 8.9 -13.1°
